METEOR 2-8 DEB

Satellite information

Favourite Embed

Satellite Type and Status

DEBRISIN ORBIT

Key statistics

Satellite METEOR 2-8 DEB at a glance.

Uptime

15753

Days in orbit

Revolutions

≈ 14.2

Per day

Orbit

LEO

Low Earth Orbit

Inclination

82.5

Latest

Satellite identification and parameters

Extended collection of information and parameters for METEOR 2-8 DEB.

Object identification

Identified? True

Debris? True

Object name: METEOR 2-8 DEB

International designator: 1982-025N

Object number (NORAD): 36328

Object ID (CCSDS): 36328

Country: COMMONWEALTH OF INDEPENDENT STATES (CIS)

Current information (Y/N): Y

RCS size: SMALL

Orbital parameters

Period: 101.635 minutes

Inclination: 82.5189 deg

SMA: 7214.191 km

Apoapsis: 847.616 km

Periapsis: 824.497 km

RAAN: 221.6336 deg

Eccentricy: 0.0016023

Argument of periapsis: 65.8664 deg

Mean anomaly: 294.4188 deg

Mean motion: 14.16841509 rev/day

Mean motion (dot): 0.00003941 rev/day2

B* drag term: 0.0019576 1/REarth

Two-line elements (TLE)

Creation date: May 10, 2025, 5:27 p.m.

Reference frame: TEME

Reference center: EARTH

Epoch: May 10, 2025, 12:25 p.m. UTC

TLE line 0: 0 METEOR 2-8 DEB

TLE line 1: 1 36328U 82025N 25130.51790752 .00003941 00000-0 19576-2 0 9993

TLE line 2: 2 36328 82.5189 221.6336 0016023 65.8664 294.4188 14.16841509611178

Live tracking on map

Real-time ground track for satellite METEOR 2-8 DEB.

In-orbit conjunctions

A list of the most updated potential collisions computed for object METEOR 2-8 DEB.

Target Orbit TCA Probability of collision Miss distance Type
CZ-6A DEB LEO 2024-10-28 07:14:33 0.0001939763 582.0 (m) DEBRIS
FENGYUN 1C DEB SSO 2024-09-02 18:31:57 0.0002953848 149.0 (m) DEBRIS

Associated space launch

Second generation soviet meteorological satellite

METEOR 2-8 DEB was lifted into orbit during the mission ‘Tsiklon-3 | Meteor-2 8’, on board a Tsiklon-3 space rocket.

The launch took place on March 25, 1982, 9:50 a.m. from 32/1.

For more information about the launch, click the button.

Launch to space Tsiklon-3 | Meteor-2 8
Tsiklon-3 | Meteor-2 8

Agency: N/A

Status: Launch Successful

Launch date: March 25, 1982, 9:50 a.m. UTC

Rocket: Tsiklon-3

Launch pad: 32/1

Location: Plesetsk Cosmodrome, Russian Federation

...

Latest news about this satellite

There are no fresh news available about this satellite. Check back as we update our databases every day.


Newsletter sign-up

Weekly statistics, charts and insights to help you stay on top of the space industry.